This is the latest recevied weather packets stored in our database for station/object NC4J. If no packets are shown the sender has not sent any weather packets the latest 10 day(s).
| Time | Temp. | Humidity | Pressure | Rain* | Wind** | Luminosity | Snow |
|---|---|---|---|---|---|---|---|
| 1778036322 | 16.67° C | 57% | 1015.7 hPa | 0 mm | - | 0 W/m² | - |
| 1778036018 | 16.67° C | 60% | 1015.7 hPa | 0 mm | - | 0 W/m² | - |
| 1778035716 | 16.67° C | 58% | 1015.8 hPa | 0 mm | - | 0 W/m² | - |
| 1778035412 | 16.67° C | 56% | 1015.8 hPa | 0 mm | - | 0 W/m² | - |
| 1778035109 | 16.67° C | 55% | 1015.6 hPa | 0 mm | - | 0 W/m² | - |
| 1778034806 | 16.67° C | 56% | 1015.5 hPa | 0 mm | - | 0 W/m² | - |
| 1778034502 | 16.67° C | 57% | 1015.1 hPa | 0 mm | - | 0 W/m² | - |
| 1778034200 | 16.67° C | 54% | 1015.2 hPa | 0 mm | - | 0 W/m² | - |
| 1778033898 | 17.22° C | 59% | 1015 hPa | 0 mm | - | 0 W/m² | - |
| 1778033595 | 17.22° C | 55% | 1015.2 hPa | 0 mm | - | 0 W/m² | - |
| 1778033291 | 17.78° C | 52% | 1015.2 hPa | 0 mm | - | 0 W/m² | - |
| 1778032989 | 17.78° C | 52% | 1015.4 hPa | 0 mm | - | 0 W/m² | - |
| 1778032687 | 18.33° C | 50% | 1015.2 hPa | 0 mm | - | 0 W/m² | - |
| 1778032384 | 18.33° C | 49% | 1015.2 hPa | 0 mm | - | 0 W/m² | - |
| 1778032081 | 18.89° C | 47% | 1015.2 hPa | 0 mm | - | 0 W/m² | - |
| 1778031778 | 18.89° C | 48% | 1015.1 hPa | 0 mm | - | 0 W/m² | - |
| 1778031474 | 18.33° C | 48% | 1015.3 hPa | 0 mm | - | 0 W/m² | - |
| 1778031171 | 18.33° C | 49% | 1015.2 hPa | 0 mm | - | 0 W/m² | - |
| 1778030868 | 18.89° C | 49% | 1015.1 hPa | 0 mm | - | 0 W/m² | - |
| 1778030565 | 18.89° C | 47% | 1015.2 hPa | 0 mm | - | 0 W/m² | - |
| 1778030262 | 18.89° C | 46% | 1015.1 hPa | 0 mm | - | 0 W/m² | - |
| 1778029958 | 18.89° C | 47% | 1015.1 hPa | 0 mm | - | 0 W/m² | - |
| 1778029657 | 18.89° C | 47% | 1015.2 hPa | 0 mm | - | 0 W/m² | - |
| 1778029354 | 18.89° C | 48% | 1015.1 hPa | 0 mm | - | 0 W/m² | - |
| 1778029051 | 18.89° C | 45% | 1015.3 hPa | 0 mm | - | 0 W/m² | - |
* Rain latest hour (hover to see other rain measurements)
** Current wind speed in m/s (hover to see current wind gust speed)